| time (UTC) | temp C | wind direction | speed KPH | gust KPH | rain 1hr cm | rain 24hr cm | rain mn cm | humidity % | barometer mb |
| 20260506123119 | 18 | 339 | 0.0 | 9.7 | 0.00 | 0.00 | 0.00 | 53 | 1005.2 |
| 20260506121516 | 19 | 351 | 3.2 | 17.7 | 0.00 | 0.00 | 0.00 | 52 | 1005.3 |
| 20260506120013 | 18 | 33 | 0.0 | 11.3 | 0.00 | 0.00 | 0.00 | 54 | 1005.5 |
| 20260506114511 | 18 | 68 | 0.0 | 4.8 | 0.00 | 0.00 | 0.00 | 54 | 1005.5 |
| 20260506113008 | 17 | 79 | 0.0 | 16.1 | 0.00 | 0.00 | 0.00 | 54 | 1005.9 |
| 20260506111504 | 17 | 75 | 1.6 | 6.4 | 0.00 | 0.00 | 0.00 | 56 | 1006.2 |
| 20260506110003 | 17 | 59 | 1.6 | 20.9 | 0.00 | 0.00 | 0.00 | 57 | 1006.3 |
| 20260506104504 | 17 | 82 | 1.6 | 19.3 | 0.00 | 0.00 | 0.00 | 56 | 1006.4 |
| 20260506103110 | 17 | 83 | 4.8 | 20.9 | 0.00 | 0.00 | 0.00 | 56 | 1006.5 |
| 20260506101559 | 17 | 73 | 1.6 | 20.9 | 0.00 | 0.00 | 0.00 | 56 | 1006.7 |
| 20260506100056 | 17 | 30 | 0.0 | 12.9 | 0.00 | 0.00 | 0.00 | 55 | 1006.8 |
| 20260506094552 | 16 | 20 | 0.0 | 9.7 | 0.00 | 0.00 | 0.00 | 57 | 1006.7 |
| 20260506093049 | 16 | 36 | 0.0 | 6.4 | 0.00 | 0.00 | 0.00 | 59 | 1006.7 |
| 20260506091549 | 16 | 37 | 0.0 | 22.5 | 0.00 | 0.00 | 0.00 | 58 | 1006.5 |
| 20260506090048 | 16 | 341 | 4.8 | 14.5 | 0.00 | 0.00 | 0.00 | 58 | 1006.7 |
| 20260506084544 | 15 | 47 | 1.6 | 9.7 | 0.00 | 0.00 | 0.00 | 58 | 1006.9 |
| 20260506083044 | 15 | 6 | 3.2 | 14.5 | 0.00 | 0.00 | 0.00 | 60 | 1007.0 |
| 20260506081539 | 15 | 69 | 0.0 | 12.9 | 0.00 | 0.00 | 0.00 | 61 | 1007.2 |
| 20260506073034 | 14 | 15 | 3.2 | 14.5 | 0.00 | 0.00 | 0.00 | 61 | 1007.5 |
| 20260506071528 | 13 | 33 | 1.6 | 9.7 | 0.00 | 0.00 | 0.00 | 62 | 1007.5 |
| 20260506061517 | 11 | 33 | 0.0 | 8.0 | 0.00 | 0.00 | 0.00 | 74 | 1007.8 |
| 20260506044500 | 8 | 50 | 0.0 | 3.2 | 0.00 | 0.00 | 0.00 | 86 | 1007.9 |
| 20260506043058 | 8 | 11 | 0.0 | 9.7 | 0.00 | 0.00 | 0.00 | 87 | 1008.0 |
| 20260506041555 | 8 | 345 | 0.0 | 3.2 | 0.00 | 0.00 | 0.00 | 88 | 1007.7 |
| 20260506040051 | 8 | 15 | 0.0 | 1.6 | 0.00 | 0.00 | 0.00 | 88 | 1007.6 |
| 20260506034551 | 8 | 349 | 0.0 | 0.0 | 0.00 | 0.00 | 0.00 | 88 | 1007.6 |
| 20260506033046 | 8 | 20 | 0.0 | 0.0 | 0.00 | 0.00 | 0.00 | 88 | 1007.7 |
| 20260506031549 | 8 | 348 | 0.0 | 0.0 | 0.00 | 0.00 | 0.00 | 88 | 1007.6 |
| 20260506030043 | 8 | 30 | 0.0 | 0.0 | 0.00 | 0.00 | 0.00 | 88 | 1007.5 |
| 20260506024545 | 8 | 20 | 0.0 | 0.0 | 0.00 | 0.00 | 0.00 | 87 | 1007.4 |
| 20260506023042 | 8 | 2 | 0.0 | 0.0 | 0.00 | 0.00 | 0.00 | 87 | 1007.5 |
| 20260506021552 | 8 | 41 | 0.0 | 0.0 | 0.00 | 0.00 | 0.00 | 87 | 1007.2 |
| 20260506020039 | 8 | 15 | 0.0 | 0.0 | 0.00 | 0.00 | 0.00 | 87 | 1007.1 |
| 20260506014539 | 8 | 15 | 0.0 | 0.0 | 0.00 | 0.00 | 0.00 | 87 | 1007.1 |
| 20260506013043 | 8 | 2 | 0.0 | 3.2 | 0.00 | 0.00 | 0.00 | 87 | 1007.0 |
| 20260506011544 | 8 | 2 | 0.0 | 0.0 | 0.00 | 0.00 | 0.00 | 87 | 1007.0 |
| 20260506010045 | 8 | 349 | 0.0 | 0.0 | 0.00 | 0.00 | 0.00 | 87 | 1007.3 |
| 20260506004534 | 8 | 360 | 0.0 | 4.8 | 0.00 | 0.00 | 0.00 | 87 | 1007.3 |
| 20260506003032 | 9 | 347 | 0.0 | 8.0 | 0.00 | 0.00 | 0.00 | 85 | 1007.0 |
| 20260506001529 | 10 | 4 | 0.0 | 0.0 | 0.00 | 0.00 | 0.00 | 84 | 1006.7 |
| 20260506000028 | 10 | 357 | 0.0 | 3.2 | 0.00 | 0.00 | 0.00 | 82 | 1006.9 |
| 20260505234533 | 10 | 360 | 0.0 | 0.0 | 0.00 | 0.00 | 0.00 | 83 | 1006.8 |
| 20260505233028 | 10 | 343 | 0.0 | 0.0 | 0.00 | 0.00 | 0.00 | 84 | 1006.9 |
| 20260505231529 | 10 | 337 | 0.0 | 0.0 | 0.00 | 0.00 | 0.00 | 84 | 1006.7 |
| 20260505230025 | 10 | 329 | 0.0 | 0.0 | 0.00 | 0.00 | 0.00 | 84 | 1006.9 |
| 20260505224529 | 10 | 351 | 0.0 | 0.0 | 0.00 | 0.00 | 0.00 | 83 | 1006.6 |
| 20260505223020 | 11 | 34 | 0.0 | 0.0 | 0.00 | 0.00 | 0.00 | 81 | 1006.4 |
| 20260505221517 | 11 | 354 | 0.0 | 0.0 | 0.00 | 0.00 | 0.00 | 78 | 1006.6 |
| 20260505220014 | 11 | 329 | 0.0 | 0.0 | 0.00 | 0.00 | 0.00 | 77 | 1006.9 |
| 20260505214514 | 11 | 352 | 0.0 | 0.0 | 0.00 | 0.00 | 0.00 | 78 | 1006.5 |
| 20260505213017 | 11 | 335 | 0.0 | 0.0 | 0.00 | 0.00 | 0.00 | 78 | 1006.7 |
| 20260505211530 | 11 | 10 | 0.0 | 0.0 | 0.00 | 0.00 | 0.00 | 78 | 1006.7 |
| 20260505210011 | 11 | 335 | 0.0 | 0.0 | 0.00 | 0.00 | 0.00 | 79 | 1006.6 |
| 20260505204509 | 11 | 315 | 0.0 | 11.3 | 0.00 | 0.00 | 0.00 | 80 | 1006.6 |
| 20260505203008 | 12 | 301 | 0.0 | 8.0 | 0.00 | 0.00 | 0.00 | 80 | 1006.5 |
| 20260505201508 | 12 | 44 | 0.0 | 4.8 | 0.00 | 0.00 | 0.00 | 80 | 1004.8 |
| 20260505200005 | 13 | 25 | 0.0 | 12.9 | 0.00 | 0.00 | 0.00 | 79 | 1004.8 |
| 20260505194506 | 14 | 283 | 0.0 | 6.4 | 0.00 | 0.00 | 0.00 | 75 | 1007.5 |
| 20260505193003 | 15 | 309 | 1.6 | 6.4 | 0.00 | 0.00 | 0.00 | 71 | 1006.8 |
| 20260505191503 | 15 | 334 | 0.0 | 0.0 | 0.00 | 0.00 | 0.00 | 70 | 1005.8 |
| 20260505190008 | 15 | 334 | 0.0 | 0.0 | 0.00 | 0.00 | 0.00 | 69 | 1005.7 |
| 20260505184502 | 15 | 334 | 0.0 | 0.0 | 0.00 | 0.00 | 0.00 | 69 | 1005.8 |
| 20260505183002 | 16 | 334 | 0.0 | 4.8 | 0.00 | 0.00 | 0.00 | 70 | 1005.8 |
| 20260505181502 | 16 | 312 | 0.0 | 0.0 | 0.00 | 0.00 | 0.00 | 69 | 1005.8 |
| 20260505180110 | 16 | 311 | 0.0 | 0.0 | 0.00 | 0.00 | 0.00 | 68 | 1005.7 |
| 20260505174559 | 16 | 311 | 0.0 | 0.0 | 0.00 | 0.00 | 0.00 | 67 | 1005.9 |
| 20260505173059 | 17 | 311 | 0.0 | 0.0 | 0.00 | 0.00 | 0.00 | 67 | 1006.1 |
| 20260505171559 | 17 | 311 | 0.0 | 0.0 | 0.00 | 0.00 | 0.00 | 64 | 1006.1 |
| 20260505170058 | 17 | 312 | 0.0 | 0.0 | 0.00 | 0.00 | 0.00 | 62 | 1005.9 |
| 20260505164602 | 17 | 312 | 0.0 | 0.0 | 0.00 | 0.00 | 0.00 | 62 | 1005.9 |
| 20260505163057 | 17 | 316 | 0.0 | 0.0 | 0.00 | 0.00 | 0.00 | 61 | 1005.9 |
| 20260505161557 | 17 | 316 | 0.0 | 0.0 | 0.00 | 0.00 | 0.00 | 61 | 1005.8 |
| 20260505153055 | 17 | 289 | 0.0 | 0.0 | 0.00 | 0.00 | 0.00 | 67 | 1006.1 |
| 20260505151553 | 17 | 321 | 0.0 | 0.0 | 0.00 | 0.00 | 0.00 | 71 | 1006.0 |
| 20260505124543 | 21 | 242 | 9.7 | 22.5 | 0.00 | 0.00 | 0.00 | 45 | 1006.6 |